User: anonymous   Login
Location: Unspecified
(0.0000°N, 0.0000°E)
Time: 16:39:21
(UTC+00:00)
Language:

COSMOS 2498 - Orbit

View from above orbital plane
View from above orbital plane
View from above satellite
View from above satellite

Ground track
Ground track

The orbit data is extracted from the following two-line orbital elements,

1 39763U 14028C   17204.88785529 +.00000010 +00000-0 +00000-0 0  9990
2 39763 082.4479 344.6778 0020214 313.9525 045.9890 12.42897494143812
Epoch (UTC): 23 July 2017 21:18:30
Eccentricity: 0.0020214
inclination: 82.4479°
perigee height: 1478 km
apogee height: 1510 km
right ascension of ascending node: 344.6778°
argument of perigee: 313.9525°
revolutions per day: 12.42897494
mean anomaly at epoch: 45.9890°
orbit number at epoch: 14381

The dashed part of the orbit path shows where the satellite is in the earth's shadow,  

DLR